天启-14星 (TIANQI-14)

导读

TIANQI-14(天启-14)是中国于2021年6月18日8时发射的低轨物联网卫星,隶属于我国首个低轨物联网星座天启星座。该卫星旨在推进天启星座组网建设,具备全球覆盖、低功耗、低成本特点,可为农林、海洋、应急、电力等多行业提供空天地海一体化的卫星物联网数据服务,支撑各领域数字化应用发展。

基本信息
目录编号:
48864
目录名称:
TIANQI-14
国际标识:
2021-055E
轨道中心:
EARTH
卫星名称:
天启-14星
卫星全名:
天启-14星 (TIANQI-14)
卫星状态:
在轨 (已飞行1905 天)
发射日期:
2021-06-18 UTC
国别 :
中国 (CN)
星等 :
--
轨道信息
数据来源 国际轨道数据
星历时间: 2026-09-05T13:49:52+0800
7小时前
查看轨道信息
半长轴: 6900.876km
偏心率: 0.0005018
轨道倾角: 34.999°
近地点辐角 303.688°
升交点赤经 301.901°
平近点角 56.336°
近地点: 519.276km
远地点: 526.202km
周期: 95.086分钟
每日圈数: 15.144205
详细信息
平衡模式:
三轴稳定
覆盖范围:
全球
运营商:
北京国电高科科技有限公司
运营商所在国:
中国
制造商(研发单位):
北京国电高科科技有限公司
制造商所在国:
中国
使用方式:
暂无
卫星简介
天启星座(Tianqi)由38颗卫星组网而成,提供全球短数据采集。致力于为全球物联网相关行业用户提供覆盖全球、准实时的物联网卫星数据服务,真正实现空中、海洋和地面的万物互联,构建天地一体化的卫星物联网生态系统,全面解决海上、空中以及陆地网络盲区(我国有70%以上陆地没有网络覆盖)的物联网数据通信问题。该卫星仍在工作。
2D轨道图
3D轨道图
轨道高度分析图
轨道倾角分析图
轨道综合分析图
查看轨道综合分析图
交会数据列表
事件ID 空间交会对象 最接近时刻(TCA) 交会距离 交会风险概率(CRP) 交会风险指数(CRI) 操作
CDM_260906-021104-886406-462324
HAWK-12A (64623)
2026-09-06T
02:11:15+0000
1.216 km
极远距离
9.731461E-6 低风险 0.55